Regional Weather Roundup
Issued by NWS

Home | Current Version | Previous Version | Text Only | Print | Product List | Glossary On
Versions: 1 2 3 4 5 6 7 8 9 10 11 12 13 14 15 16 17 18 19 20 21 22 23 24 25 26 27 28 29 30 31 32 33 34 35 36 37 38 39 40 41 42 43 44 45 46 47 48 49 50
000
ASUS44 KLIX 010810
RWRLA
LOUISIANA WEATHER ROUNDUP
NATIONAL WEATHER SERVICE NEW ORLEANS LA
300 AM CDT TUE SEP 01 2015

NOTE: "FAIR" INDICATES FEW OR NO CLOUDS BELOW 12,000 FEET WITH NO
      SIGNIFICANT WEATHER AND/OR OBSTRUCTIONS TO VISIBILITY.
      SKY/WX - SKY CONDITION AND SIGNIFICANT WEATHER.
      TMP - AIR TEMPERATURE.    DP   - DEWPOINT TEMPERATURE.
      RH  - RELATIVE HUMIDITY.  PRES - PRESSURE.
      HX  - HEAT INDEX.         WCI  - WIND CHILL INDEX.

*  THESE STATIONS ARE NOT NWS OR FAA STATIONS AND ARE NOT UNDER
   NWS QUALITY CONTROL.

LAZ040-048-061>063-065-066-069-010900-
SOUTHEAST LOUISIANA

CITY           SKY/WX    TMP DP  RH WIND       PRES   REMARKS
N.O. AUDUBON   NOT AVBL
N.O. INTL ARPT PTCLDY    76  71  85 CALM      30.04F
N.O. LAKEFRONT CLEAR     79  70  74 CALM      30.05S
N.O. DOWNTOWN* FAIR      81  70  69 SW3       30.05F
RESERVE*       FAIR      74  72  92 CALM      30.04F FOG
SLIDELL        CLEAR     69  68  96 N3        30.04S
BATON ROUGE    MOCLDY    73  71  93 NE3       30.04F
BOOTHVILLE     CLEAR     78  73  84 CALM      30.04F
BELLE CHASSE   CLEAR     71  69  93 CALM      30.04F FOG
BOGALUSA*      NOT AVBL
GALLIANO*      PTSUNNY   71  70  97 CALM      30.04S
NEW ROADS*     FAIR      73  72  97 CALM      30.04F
GONZALES*      FAIR      73  73 100 CALM      30.04S
HAMMOND*       PTCLDY    73  70  88 CALM      30.06F
HOUMA*         MOCLDY    73  72  97 CALM      30.04F
PORT FOURCHON* SUNNY     82  70  65 SE3       30.04F

$$

LAZ041-044-053-054-010900-
SOUTHWEST LOUISIANA

CITY           SKY/WX    TMP DP  RH WIND       PRES   REMARKS
LAKE CHARLES   CLOUDY    76  74  93 SE10      30.03F
LAFAYETTE      CLOUDY    76  74  93 CALM      30.03F
PATTERSON      CLOUDY    73  72  94 E3        30.04F
SALT POINT       N/A     77  76  96 CALM      30.00F
NEW IBERIA     CLOUDY    78  75  90 CALM      30.03F
CHENAULT AIRPK CLOUDY    77  74  92 S6        30.04S THUNDER

$$

LAZ027-028-010900-
CENTRAL LOUISIANA

CITY           SKY/WX    TMP DP  RH WIND       PRES   REMARKS
FORT POLK      CLOUDY    76  73  90 SE6       30.03F
ALEXANDRIA INT CLOUDY    75  72  90 SE3       30.03S
ALEXANDRIA     CLOUDY    74  70  87 CALM      30.05S

$$

LAZ001-002-010900-
NORTHWEST LOUISIANA

CITY           SKY/WX    TMP DP  RH WIND       PRES   REMARKS
SHREVEPORT     CLOUDY    74  66  76 SW5       30.04S
BARKSDALE AFB  CLOUDY    75  66  74 CALM      30.04S
DTN SHREVEPORT CLOUDY    77  66  68 W3        30.04S

$$

LAZ014-016-010900-
NORTHEAST LOUISIANA

CITY           SKY/WX    TMP DP  RH WIND       PRES   REMARKS
MONROE         CLOUDY    74  70  87 S3        30.06R
TALLULAH       PTCLDY    71  67  87 CALM      30.05S

$$



USA.gov is the U.S. government's official web portal to all federal, state and local government web resources and services.